Вернуться в каталог

COSMOS 886 DEB *

АктивенUNKNOWN
NORAD 9799·DEBRIS·🇷🇺 Russia

Запущен Dec 27, 1976 с Baikonur Cosmodrome

Loading…

Ближайшие Пролёты (ближайшие 24 часа)

TLE

СвежийSource: Space-Track

Эпоха: Sep 14, 2026, 08:56 UTC

1 09799U 76126Z   26257.37247057  .00000027  00000-0  49212-4 0  9994
2 09799  65.6043 140.4002 1010714 254.0045  94.7495 12.79753667660952

Отслеживайте COSMOS 886 DEB * в реальном времени с AllMySat

Download on the App Store